Location: Mahannah Oil Field
(37.4664°N, 96.6003°W)
Time: 01:43:42
(UTC+00:00)

deb Explorer IX - Pass Details

Date: 27 January 2021
Orbit: 537 x 1102 km, 38.8° (Epoch: 25 February)

Event Time Altitude Azimuth Distance (km) Brightness Sun altitude
Rises 20:05:44 0° 196° (SSW) 3,899 ? 30.7°
Reaches altitude 10° 20:09:38 10° 177° (S) 2,941 ? 30.4°
Maximum altitude 20:13:55 17° 140° (SE) 2,439 ? 30.0°
Drops below altitude 10° 20:18:06 10° 103° (ESE) 2,843 ? 29.6°
Sets 20:21:45 0° 84° (E) 3,714 ? 29.3°
